TimeEDT,TemperatureF,Dew PointF,Humidity,Sea Level PressureIn,VisibilityMPH,Wind Direction,Wind SpeedMPH,Gust SpeedMPH,PrecipitationIn,Events,Conditions,WindDirDegrees,DateUTC
12:51 AM,61.0,54.0,78,30.06,10.0,NE,9.2,-,0.00,,Overcast,50,2011-10-23 04:51:00
1:51 AM,62.1,53.1,72,30.06,10.0,NE,9.2,-,N/A,,Overcast,40,2011-10-23 05:51:00
2:51 AM,61.0,52.0,72,30.06,10.0,NE,6.9,-,0.00,,Overcast,50,2011-10-23 06:51:00
3:51 AM,62.1,52.0,70,30.06,10.0,NE,5.8,-,N/A,,Overcast,40,2011-10-23 07:51:00
4:51 AM,62.1,53.1,72,30.06,10.0,Variable,6.9,-,0.00,,Overcast,0,2011-10-23 08:51:00
5:51 AM,62.1,52.0,70,30.06,10.0,NE,9.2,17.3,N/A,,Overcast,40,2011-10-23 09:51:00
6:51 AM,62.1,52.0,70,30.06,10.0,NE,10.4,-,N/A,,Overcast,40,2011-10-23 10:51:00
7:51 AM,63.0,51.1,65,30.07,10.0,NE,6.9,-,N/A,,Overcast,50,2011-10-23 11:51:00
8:00 AM,-9999,-9999,N/A,-9999,-9999.0,North,-9999.0,-,N/A,,Unknown,0,2011-10-23 12:00:00
8:51 AM,64.0,52.0,65,30.10,10.0,NE,8.1,-,N/A,,Overcast,50,2011-10-23 12:51:00
9:51 AM,64.9,53.1,65,30.11,10.0,NE,8.1,-,N/A,,Overcast,40,2011-10-23 13:51:00
10:51 AM,64.9,53.1,65,30.11,10.0,NE,6.9,-,N/A,,Overcast,50,2011-10-23 14:51:00
11:51 AM,69.1,54.0,58,30.10,10.0,NE,10.4,-,N/A,,Partly Cloudy,50,2011-10-23 15:51:00
12:51 PM,68.0,54.0,61,30.09,10.0,NE,9.2,-,N/A,,Overcast,50,2011-10-23 16:51:00
1:51 PM,69.1,55.0,61,30.08,10.0,NE,8.1,-,N/A,,Overcast,40,2011-10-23 17:51:00
2:51 PM,68.0,55.9,65,30.07,10.0,NE,9.2,-,N/A,,Overcast,40,2011-10-23 18:51:00
3:51 PM,68.0,55.9,65,30.08,10.0,ENE,6.9,-,N/A,,Overcast,60,2011-10-23 19:51:00
4:51 PM,66.9,55.9,68,30.07,10.0,Variable,5.8,-,N/A,,Overcast,0,2011-10-23 20:51:00
5:51 PM,66.9,55.0,66,30.07,10.0,NE,5.8,-,N/A,,Overcast,50,2011-10-23 21:51:00
6:51 PM,64.9,55.9,73,30.08,10.0,NE,4.6,-,N/A,,Scattered Clouds,50,2011-10-23 22:51:00
7:51 PM,64.0,55.9,75,30.08,10.0,NE,4.6,-,N/A,,Partly Cloudy,50,2011-10-23 23:51:00
8:51 PM,64.9,57.0,75,30.09,10.0,NE,4.6,-,N/A,,Scattered Clouds,40,2011-10-24 00:51:00
9:34 PM,66.2,57.2,73,30.09,10.0,NNE,4.6,-,N/A,,Overcast,30,2011-10-24 01:34:00
9:51 PM,66.0,59.0,78,30.10,10.0,NNE,3.5,-,N/A,,Overcast,30,2011-10-24 01:51:00
10:51 PM,66.0,60.1,81,30.09,10.0,NNE,6.9,-,N/A,,Overcast,30,2011-10-24 02:51:00
11:04 PM,66.2,60.8,83,30.09,10.0,Variable,6.9,-,N/A,,Overcast,0,2011-10-24 03:04:00
11:43 PM,66.2,60.8,83,30.09,10.0,NE,5.8,-,N/A,,Overcast,40,2011-10-24 03:43:00
11:51 PM,64.9,61.0,87,30.09,9.0,NE,8.1,-,N/A,,Overcast,50,2011-10-24 03:51:00